Location: Chuathbaluk
(61.5726°N, 159.2454°W)
Time: 14:46:09
(UTC+00:00)

S-56A Canister/Altair - Pass Details

Date: 02 December 2020
Orbit: 633 x 2499 km, 38.9° (Epoch: 15 January)

Event Time Altitude Azimuth Distance (km) Brightness Sun altitude
Rises 05:59:40 0° 222° (SW) 5,588 12.3 -30.3°
Reaches altitude 10° 06:05:36 10° 204° (SSW) 4,205 11.4 -31.0°
Maximum altitude 06:11:02 15° 174° (S) 3,383 10.6 -31.6°
Enters shadow 06:11:15 15° 172° (S) 3,368 10.6 -31.6°
Drops below altitude 10° 06:15:36 10° 142° (SE) 3,412 - -32.1°
Sets 06:19:34 0° 120° (ESE) 4,034 - -32.6°
